Weather History for CYXU - December, 2012

Change the Weather History Date:

Tuesday, December 18, 2012

  Actual Average Record
Temperature  
Mean Temperature 33 °F -  
Max Temperature 38 °F 31 °F - (-1)
Min Temperature 28 °F 19 °F - (-1)
Degree Days  
Heating Degree Days 32    
Moisture  
Dew Point 34 °F    
Average Humidity 91    
Maximum Humidity 100    
Minimum Humidity 80    
Precipitation  
Precipitation 0.00 in - - ()
Sea Level Pressure  
Sea Level Pressure 29.68 in    
Wind  
Wind Speed 7 mph ()    
Max Wind Speed 13 mph    
Max Gust Speed 20 mph    
Visibility 11.7 miles    
Events Rain    
Averages and records for this station are not official NWS values.
T = Trace of Precipitation, MM = Missing Value Source: Averaged Metar Reports

Daily Weather History Graph

Daily Weather History Graph

Search for Another Location

Airport or City:

Trip Planner

Search our weather history database for the weather conditions in past years. The results will help you decide how hot, cold, wet, or windy it might be!

Date:

Astronomy

Dec. 18, 2012 Rise Set
Actual Time 7:51 AM EST 4:51 PM EST
Civil Twilight 7:18 AM EST 5:24 PM EST
Nautical Twilight 6:43 AM EST 6:00 PM EST
Astronomical Twilight 6:08 AM EST 6:34 PM EST
Moon 11:22 AM EST (12/18) 11:25 PM EST (12/18)
Length of Visible Light 10h 05m
Length of Day
9h 00m
Waxing Crescent, 34% of the Moon is Illuminated
Dec 18
Waxing Crescent
Dec 20
First Quarter
Dec 28
Full
Jan 4
Last Quarter
Jan 11
New

Hourly Weather History & Observations

Time (EST) Temp. Windchill Dew Point Humidity Pressure Visibility Wind Dir Wind Speed Gust Speed Precip Events Conditions
12:00 AM 37.4 °F 32.8 °F 35.6 °F 93% 29.60 in 12.0 mi North 5.8 mph - N/A   Overcast
12:30 AM 37.4 °F 32.1 °F 35.6 °F 93% 29.59 in 8.0 mi North 6.9 mph - N/A   Light Drizzle
1:00 AM 38 °F - 36 °F 89% 29.59 in 7 mi North 5.8 mph - -   Overcast
1:00 AM 37.4 °F 32.8 °F 35.6 °F 93% 29.59 in 8.0 mi North 5.8 mph - N/A   Light Drizzle
2:00 AM 37.4 °F 30.8 °F 35.6 °F 93% 29.59 in 8.0 mi NNW 9.2 mph - N/A   Light Drizzle
3:00 AM 37.4 °F 30.8 °F 35.6 °F 93% 29.59 in 10.0 mi NNW 9.2 mph - N/A   Overcast
4:00 AM 37.4 °F 31.4 °F 35.6 °F 93% 29.58 in 10.0 mi NNW 8.1 mph - N/A   Overcast
4:47 AM 37.4 °F 32.1 °F 35.6 °F 93% 29.59 in 10.0 mi NNW 6.9 mph - N/A   Light Drizzle
5:00 AM 37.4 °F 31.4 °F 33.8 °F 87% 29.59 in 15.0 mi NNW 8.1 mph - N/A   Overcast
6:00 AM 37.4 °F 31.4 °F 33.8 °F 87% 29.60 in 15.0 mi NNW 8.1 mph - N/A   Overcast
7:00 AM 37 °F - 33 °F 81% 29.62 in 15 mi NW 8.1 mph - -   Overcast
7:00 AM 37.4 °F 31.4 °F 33.8 °F 87% 29.62 in 15.0 mi NW 8.1 mph - N/A   Overcast
7:24 AM 37.4 °F 32.8 °F 33.8 °F 87% 29.63 in 15.0 mi NW 5.8 mph - N/A Rain Light Rain Showers
8:00 AM 37.4 °F 32.8 °F 33.8 °F 87% 29.64 in 15.0 mi NW 5.8 mph - N/A Rain Light Rain Showers
9:00 AM 37.4 °F 31.4 °F 35.6 °F 93% 29.65 in 10.0 mi NW 8.1 mph - N/A Rain Light Rain Showers
10:00 AM 37.4 °F 29.8 °F 35.6 °F 93% 29.67 in 15.0 mi WNW 11.5 mph - N/A   Mostly Cloudy
10:24 AM 37.4 °F 30.3 °F 35.6 °F 93% 29.68 in 15.0 mi WNW 10.4 mph - N/A Rain Light Rain Showers
11:00 AM 37.4 °F 31.4 °F 35.6 °F 93% 29.69 in 8.0 mi WNW 8.1 mph - N/A Rain Light Rain Showers
11:43 AM 37.4 °F 32.8 °F 35.6 °F 93% 29.69 in 8.0 mi NW 5.8 mph - N/A Rain Light Rain Showers
12:00 PM 37.4 °F 30.8 °F 35.6 °F 93% 29.69 in 10.0 mi WNW 9.2 mph 17.3 mph N/A Rain Light Rain Showers
1:00 PM 36 °F - 35 °F 96% 29.69 in 7 mi West 11.5 mph - -   Overcast
1:00 PM 37.4 °F 29.3 °F 35.6 °F 93% 29.69 in 8.0 mi West 12.7 mph - N/A Rain Light Rain Showers
1:36 PM 37.4 °F 30.3 °F 35.6 °F 93% 29.70 in 2.5 mi WNW 10.4 mph 19.6 mph N/A   Light Drizzle
2:00 PM 37.4 °F 29.3 °F 35.6 °F 93% 29.70 in 2.5 mi West 12.7 mph - N/A   Light Drizzle
2:16 PM 37.4 °F 30.3 °F 35.6 °F 93% 29.70 in 10.0 mi WNW 10.4 mph - N/A   Light Drizzle
3:00 PM 37.4 °F 29.8 °F 35.6 °F 93% 29.72 in 10.0 mi West 11.5 mph 18.4 mph N/A   Light Drizzle
3:44 PM 37.4 °F 30.3 °F 33.8 °F 87% 29.73 in 15.0 mi West 10.4 mph 19.6 mph N/A   Overcast
4:00 PM 37.4 °F 30.3 °F 33.8 °F 87% 29.73 in 15.0 mi West 10.4 mph - N/A   Overcast
4:44 PM 35.6 °F 29.2 °F 33.8 °F 93% 29.74 in 15.0 mi West 8.1 mph - N/A   Overcast
5:00 PM 35.6 °F 28.0 °F 32.0 °F 87% 29.75 in 15.0 mi West 10.4 mph - N/A   Overcast
6:00 PM 33.8 °F 27.0 °F 30.2 °F 87% 29.75 in 15.0 mi West 8.1 mph - N/A   Scattered Clouds
7:00 PM 33 °F - 29 °F 80% 29.77 in 15 mi West 4.6 mph - -  
7:00 PM 32.0 °F 27.5 °F 28.4 °F 87% 29.76 in 15.0 mi West 4.6 mph - N/A   Clear
8:00 PM 30.2 °F 26.7 °F 30.2 °F 100% 29.78 in 15.0 mi WSW 3.5 mph - N/A   Clear
9:00 PM 28.4 °F - 28.4 °F 100% 29.78 in 15.0 mi Calm Calm - N/A   Partly Cloudy
10:00 PM 30.2 °F 26.7 °F 28.4 °F 93% 29.79 in 15.0 mi WSW 3.5 mph - N/A   Overcast
11:00 PM 30.2 °F - 30.2 °F 100% 29.78 in 15.0 mi ENE 2.3 mph - N/A   Overcast